Location: Maddington
(51.2000°N, 1.9167°W)
Time: 22:51:21
(UTC+00:00)

NOSS 3-2 (A) - Pass Details

Date: 22 January 2021
Orbit: 783 x 1425 km, 63.4° (Epoch: 07 March)

Event Time Altitude Azimuth Distance (km) Brightness Sun altitude
Rises 06:53:14 0° 215° (SW) 3,349 6.1 -10.0°
Reaches altitude 10° 06:55:32 10° 214° (SW) 2,469 5.5 -9.7°
Maximum altitude 07:01:13 76° 130° (SE) 962 3.7 -8.9°
Drops below altitude 10° 07:07:51 10° 46° (NE) 2,866 6.3 -7.9°
Sets 07:10:42 0° 45° (NE) 3,926 7.0 -7.5°
